OPS 4682 DEB, 1316

Orbit data source: Space-Track

OPS 4682 DEB, 1316 is space debris in LEO originally from a launch on Sat, 03 Apr 1965 UTC launched from the Air Force Western Test Range (AFWTR). Debris objects in space refer to the collection of defunct objects orbiting the Earth. Examples of debris include non-operational satellites, rocket bodies, and fragments generated from explosions, collisions, or faulty payload assembly.

Loading next visibility...
Identifier
1316, 1965-027C
Orbit
LEO
Country
Flag of USUS
Related business
Manufacturer
Unknown
Mission
Spacecraft
Bus & Motor
Unknown
Mass
7 kg wet, 7 kg dry
Launch date (UTC)
1965-04-03 (60 years ago)
Launch vehicle
Unknown
Launch site
Air Force Western Test Range (AFWTR)
Object type
Payload
Rocket body
Debris
Shape & HBR
Half Cyl, 1.0 m
Radar Cross Section
2.370 m², Medium (>0.1 m² and < 1m²)

Expand to show TLE details & history
Last TLE update: 1 day ago

TLE from 1 day ago
0 OPS 4682 DEB
1 01316U 65027C   25260.84924327  .00000963  00000-0  22966-2 0  9990
2 01316  90.2559  20.7628 0036188 206.8581 153.0681 13.22030088883015
Epoch: 2025-09-17T20:22Z
TLE epoch observation values (Epoch: 2025-09-17T20:22:54.618Z)
Latitude
-0.00005°
Longitude
78.01593°
Altitude
1,204.288 km
Speed
7.24 km/s
True Right ascension
01h 23m 03s
True Declination
0° 00' 00"
Sunlit
Object was in full shadow at epoch
Visualization orbit readout
Latitude
Unknown
Longitude
Unknown
Altitude
Unknown
Speed
Unknown
Apparent Right ascension
Unknown
Apparent Declination
Unknown
Sunlit
N/A
Visualization observer readout
Local Sidereal Time
18:28:22
Azimuth
Unknown
Elevation
Unknown
Doppler factor
Unknown
Orbital elements
Apogee altitude
1,201.397 km
Perigee altitude
1,146.737 km
Semi-major axis
7,552.204 km
Eccentricity
0.00362
Inclination
90.2559°
RAAN
20.7628°
Arg. of periapsis
206.8581°
True anomaly
153.25517°
Mean anomaly
153.0681°
Eccentric anomaly
153.16171°
Mean motion
3.30699 °/min
Orbital period
108.86 mins
BSTAR
0.0022966
Loading maneuver chart data...
Computing Atmospheric mass density...
Loading historical data...
Loading historical data...
Loading historical data...
Loading historical data...
Loading historical data...
Loading historical data...
Loading historical data...

Documentation

Showing up to 5 results
|